This demonstration page uses our WeatherBlox Daily Observations layout. Learn more.

Left ArrowRight Arrow

Hourly Observations for May 17, 2023

Temp ( °F °C ) Dew Point ( °F °C ) Humidity (%) Winds ( mph kmh ) Pressure ( in mb ) Visibility ( mi km ) Precip ( " mm )
12:12 am 00:12 Cloudy 63 17.2 61 16.1 93 93 WNW 6 9 29.85 1011 10 16 0.00 0.00
12:45 am 00:45 Cloudy 62 16.7 61 16.1 96 96 WNW 6 9 29.85 1011 9 14 0.00 0.00
12:53 am 00:53 Cloudy 62 16.7 61 16.1 96 96 WNW 6 9 29.83 1010 7 11 0.00 0.00
1:53 am 01:53 Cloudy 62 16.7 61 16.1 96 96 N 6 9 29.83 1010 7 11 0.01 0.13
2:34 am 02:34 Cloudy 62 16.7 60 15.6 93 93 N 5 7 29.83 1010 10 16 0.00 0.00
2:53 am 02:53 Cloudy 62 16.7 60 15.6 93 93 N 3 6 29.81 1010 10 16 0.00 0.00
3:00 am 03:00 Cloudy 62 16.7 60 15.6 93 93 N 7 11 29.83 1010 10 16 0.00 0.00
3:28 am 03:28 Mostly Cloudy 60 15.6 58 14.4 93 93 NNW 5 7 29.85 1011 10 16 0.00 0.00
3:53 am 03:53 Partly Cloudy 60 15.6 58 14.4 93 93 NNW 3 6 29.83 1010 9 14 0.00 0.00
4:53 am 04:53 Clear 58 14.4 57 13.9 97 97 Calm 29.84 1010 7 11 0.00 0.00
5:53 am 05:53 Clear with Mist and Fog 56 13.3 56 13.3 100 100 N 6 9 29.85 1011 5 8 0.00 0.00
6:53 am 06:53 Sunny with Mist and Fog 56 13.3 55 12.8 97 97 Calm 29.86 1011 5 8 0.00 0.00
7:40 am 07:40 Partly Cloudy with Mist and Fog 57 13.9 55 12.8 93 93 Calm 29.89 1012 6 10 0.00 0.00
7:53 am 07:53 Sunny 57 13.9 55 12.8 93 93 N 3 6 29.88 1012 8 13 0.00 0.00
8:53 am 08:53 Sunny 62 16.7 55 12.8 78 78 Calm 29.89 1012 10 16 0.00 0.00
9:53 am 09:53 Sunny 66 18.9 55 12.8 68 68 VRB 3 6 29.88 1012 10 16 0.00 0.00
10:53 am 10:53 Sunny 68 20 55 12.8 63 63 W 3 6 29.89 1012 10 16 0.00 0.00
11:53 am 11:53 Sunny 72 22.2 55 12.8 55 55 NNE 3 6 29.89 1012 10 16 0.00 0.00
12:53 pm 12:53 Sunny 74 23.3 53 11.7 48 48 NNE 7 11 29.89 1012 10 16 0.00 0.00
1:53 pm 13:53 Mostly Sunny 76 24.4 52 11.1 43 43 NNW 9 15 29.88 1012 10 16 0.00 0.00
2:53 pm 14:53 Mostly Sunny 77 25 52 11.1 42 42 NNW 6 9 29.86 1011 10 16 0.00 0.00
3:53 pm 15:53 Partly Cloudy 76 24.4 50 10 40 40 ENE 8 13 29.86 1011 10 16 0.00 0.00
4:53 pm 16:53 Sunny 77 25 54 12.2 45 45 N 9 15 29.85 1011 10 16 0.00 0.00
5:53 pm 17:53 Sunny 74 23.3 52 11.1 46 46 N 12 19 29.86 1011 10 16 0.00 0.00
6:53 pm 18:53 Sunny 72 22.2 49 9.4 44 44 NNE 7 11 29.87 1012 10 16 0.00 0.00
7:53 pm 19:53 Sunny 70 21.1 51 10.6 51 51 NNE 6 9 29.88 1012 10 16 0.00 0.00
8:53 pm 20:53 Clear 67 19.4 49 9.4 52 52 NNE 3 6 29.90 1013 10 16 0.00 0.00
9:53 pm 21:53 Clear 63 17.2 50 10 63 63 N 6 9 29.92 1013 10 16 0.00 0.00
10:53 pm 22:53 Clear 61 16.1 50 10 67 67 NNE 3 6 29.95 1014 10 16 0.00 0.00
11:53 pm 23:53 Clear 59 15 50 10 72 72 N 5 7 29.95 1014 10 16 0.00 0.00

Powered by Vaisala Xweather